Weather in Andreevka

Kazakhstan     51°40′00″N   70°24′42″E
temp.,
°C
wind,
m/s
gust,
m/s
humid.,
%
clouds,
%
prec.,
mm/h
press.,
hPa
HPBL,
m
28 september, tue
tue2800:00+2e91486100 0.9 1015503
03:00+2e9149389 0.3 1015506
06:00+2e81389100 0.4 1014454
09:00+3e81489100 1.4 1013425
12:00+6ese81081100 1.8 1010509
15:00+5e6990100 0.9 1009276
18:00+8ne458581 1.5 1007198
21:00+5ne5895100 0.6 1009235
29 september, wed
wed2900:00+5ne4595100 0.8 1009320
03:00+4ne3496100 0.0 1009309
06:00+3ne4696100 0.1 1011340
09:00+2ne5896100 0.3 1013409
12:00+3ene4593100 0.4 1015610
15:00+4ene5578100 0.0 1015721
18:00+4ne5676100 0.1 1016826
21:00+4ene4879100 0.1 1017706
30 september, thu
thu3000:00+4e3875100 0.1 1017566
03:00+3e3780100 0.0 1017508
06:00+2ene3796100 0.4 1017385
09:00+3ene4898100 0.9 1018397
12:00+3ne5893100 1.6 1017540
15:00+4ne5677100 0.2 1017796
18:00+4nne567999 0.4 1018725
21:00+3n468778 0.0 1019285
1 october, fri
fri100:00+2n589097 0.3 1019450
03:00+1nnw368994 0.0 1020243
06:00+1nw3685100 0.0 1020608
09:00+2wnw4672100 0.1 1021828
12:00+4wnw6863100 0.1 10211291
15:00+7wnw7945100 0.1 10201839
18:00+7wnw71049100 0.1 10201290
21:00+4wnw61083100 0.1 1022880
2 october, sat
sat200:00+2nw6109183 0.3 1024671
03:000nnw488711 0.0 1026393
06:00−2nw35935 0.0 1028140
09:000nw35755 0.0 1030297
12:00+3wnw345326 0.0 10301037
15:00+6w454557 0.0 10291403
18:00+5wnw454799 0.0 1029745
21:00+2wnw335933 0.0 103036